Freeport, IL

11:06 AM CDT on July 23, 2017 (GMT -0500)
Albertus

Weather History for KFEP - May, 2013

Change the Weather History Date:

Sunday, May 26, 2013

  Actual Average Record
Temperature  
Mean Temperature 50 °F -  
Max Temperature 60 °F 70 °F 91 °F (1977)
Min Temperature 41 °F 51 °F 36 °F (1979)
Degree Days  
Heating Degree Days 15    
Moisture  
Dew Point 47 °F    
Average Humidity 80    
Maximum Humidity 93    
Minimum Humidity 53    
Precipitation  
Precipitation 0.24 in - - ()
Sea Level Pressure  
Sea Level Pressure 30.23 in    
Wind  
Wind Speed 7 mph (East)    
Max Wind Speed 17 mph    
Max Gust Speed 20 mph    
Visibility 8 miles    
Events Rain , Thunderstorm    
Averages and records for this station are not official NWS values.
T = Trace of Precipitation, MM = Missing Value Source: NWS Daily Summary

Daily Weather History Graph

Daily Weather History Graph

Search for Another Location

Airport or City:

Trip Planner

Search our weather history database for the weather conditions in past years. The results will help you decide how hot, cold, wet, or windy it might be!

Date:

Astronomy

May. 26, 2013 Rise Set
Actual Time 5:27 AM CDT 8:23 PM CDT
Civil Twilight 4:54 AM CDT 8:56 PM CDT
Nautical Twilight 4:12 AM CDT 9:39 PM CDT
Astronomical Twilight 3:23 AM CDT 10:28 PM CDT
Moon 10:10 PM CDT (5/26) 6:57 AM CDT (5/26)
Length of Visible Light 16h 02m
Length of Day
14h 55m
Waning Gibbous, 96% of the Moon is Illuminated
May 26
Waning Gibbous
May 31
Last Quarter
Jun 8
New
Jun 16
First Quarter
Jun 23
Full

Hourly Weather History & Observations

Time (CDT) Temp. Windchill Dew Point Humidity Pressure Visibility Wind Dir Wind Speed Gust Speed Precip Events Conditions
12:15 AM 45.1 °F 43.7 °F 40.1 °F 82% 30.30 in 10.0 mi NE 3.5 mph - N/A   Clear
12:35 AM 46.4 °F 44.3 °F 41.2 °F 82% 30.30 in 10.0 mi ENE 4.6 mph - N/A   Clear
12:55 AM 45.0 °F 42.6 °F 40.6 °F 85% 30.30 in 10.0 mi ENE 4.6 mph - N/A   Clear
1:15 AM 46.4 °F 45.2 °F 41.4 °F 83% 30.29 in 10.0 mi ENE 3.5 mph - N/A   Clear
1:35 AM 44.4 °F 42.0 °F 40.8 °F 87% 30.29 in 10.0 mi ENE 4.6 mph - N/A   Clear
1:55 AM 45.0 °F 43.5 °F 41.0 °F 86% 30.29 in 10.0 mi NE 3.5 mph - N/A   Clear
2:15 AM 44.1 °F 40.8 °F 40.1 °F 86% 30.28 in 10.0 mi ENE 5.8 mph - N/A   Clear
2:35 AM 43.3 °F 39.2 °F 39.4 °F 86% 30.28 in 10.0 mi ENE 6.9 mph - N/A   Clear
2:55 AM 43.7 °F 39.7 °F 39.6 °F 85% 30.27 in 10.0 mi East 6.9 mph - N/A   Scattered Clouds
3:15 AM 43.7 °F 40.3 °F 39.2 °F 84% 30.27 in 10.0 mi East 5.8 mph - N/A   Scattered Clouds
3:35 AM 43.7 °F 41.1 °F 39.6 °F 85% 30.27 in 10.0 mi ENE 4.6 mph - N/A   Clear
3:55 AM 43.7 °F - 39.2 °F 84% 30.27 in 10.0 mi Calm Calm - N/A   Clear
4:15 AM 42.1 °F 39.2 °F 37.6 °F 84% 30.27 in 10.0 mi NE 4.6 mph - N/A   Clear
4:35 AM 42.1 °F 39.2 °F 37.9 °F 85% 30.28 in 10.0 mi East 4.6 mph - N/A   Clear
4:55 AM 43.2 °F 39.0 °F 38.7 °F 84% 30.27 in 10.0 mi East 6.9 mph - N/A   Clear
5:15 AM 42.6 °F 39.0 °F 38.1 °F 84% 30.27 in 10.0 mi East 5.8 mph - N/A   Clear
5:35 AM 41.9 °F 38.2 °F 38.1 °F 86% 30.27 in 10.0 mi ENE 5.8 mph - N/A   Clear
5:55 AM 43.7 °F - 39.2 °F 84% 30.29 in 10.0 mi Calm Calm - N/A   Clear
6:15 AM 41.4 °F 38.4 °F 37.8 °F 87% 30.29 in 10.0 mi NE 4.6 mph - N/A   Clear
6:35 AM 43.7 °F 42.1 °F 40.1 °F 87% 30.29 in 10.0 mi ENE 3.5 mph - N/A   Clear
6:55 AM 44.6 °F 42.2 °F 40.3 °F 85% 30.28 in 10.0 mi ENE 4.6 mph - N/A   Clear
7:15 AM 47.1 °F - 41.4 °F 80% 30.28 in 10.0 mi East 6.9 mph - N/A   Clear
7:35 AM 50.2 °F - 41.5 °F 72% 30.29 in 10.0 mi East 8.1 mph - N/A   Scattered Clouds
7:55 AM 51.4 °F - 41.7 °F 69% 30.30 in 10.0 mi East 9.2 mph - N/A   Scattered Clouds
8:15 AM 54.0 °F - 42.8 °F 66% 30.28 in 10.0 mi East 10.4 mph - N/A   Scattered Clouds
8:35 AM 54.0 °F - 42.1 °F 64% 30.28 in 10.0 mi East 11.5 mph - N/A   Scattered Clouds
8:55 AM 54.5 °F - 42.3 °F 63% 30.28 in 10.0 mi ESE 9.2 mph - N/A   Clear
9:15 AM 55.9 °F - 43.7 °F 63% 30.27 in 10.0 mi ESE 12.7 mph 16.1 mph N/A   Clear
9:35 AM 56.7 °F - 44.4 °F 64% 30.28 in 10.0 mi East 11.5 mph - N/A   Clear
9:55 AM 57.7 °F - 44.6 °F 62% 30.27 in 10.0 mi East 11.5 mph - N/A   Mostly Cloudy
10:15 AM 59.0 °F - 45.3 °F 60% 30.27 in 10.0 mi East 12.7 mph - N/A   Overcast
10:35 AM 59.0 °F - 44.8 °F 59% 30.27 in 10.0 mi ESE 12.7 mph - N/A   Overcast
10:55 AM 59.7 °F - 43.7 °F 55% 30.27 in 10.0 mi ESE 13.8 mph - N/A   Overcast
11:15 AM 59.0 °F - 42.1 °F 53% 30.27 in 10.0 mi ESE 11.5 mph 17.3 mph N/A   Overcast
11:35 AM 59.0 °F - 41.9 °F 53% 30.27 in 10.0 mi ESE 12.7 mph - N/A   Overcast
11:55 AM 59.0 °F - 44.1 °F 58% 30.26 in 10.0 mi ESE 10.4 mph - N/A   Overcast
12:15 PM 59.0 °F - 47.5 °F 66% 30.26 in 10.0 mi East 12.7 mph - N/A   Light Drizzle
12:35 PM 59.0 °F - 46.9 °F 64% 30.27 in 10.0 mi SSE 9.2 mph - N/A   Overcast
12:55 PM 59.0 °F - 47.5 °F 66% 30.27 in 10.0 mi SE 9.2 mph - N/A   Overcast
1:15 PM 59.0 °F - 47.5 °F 66% 30.27 in 10.0 mi SE 6.9 mph - N/A   Overcast
1:35 PM 59.0 °F - 47.3 °F 65% 30.26 in 10.0 mi SE 10.4 mph - N/A   Overcast
1:55 PM 59.0 °F - 48.4 °F 68% 30.25 in 10.0 mi ESE 10.4 mph 16.1 mph N/A   Overcast
2:15 PM 59.0 °F - 51.4 °F 76% 30.24 in 10.0 mi East 12.7 mph - N/A Rain Light Rain
2:35 PM 59.0 °F - 53.6 °F 82% 30.23 in 7.0 mi East 10.4 mph - N/A   Light Drizzle
2:55 PM 59.0 °F - 54.1 °F 84% 30.24 in 7.0 mi ESE 9.2 mph - N/A Rain , Thunderstorm Light Thunderstorms and Rain
3:15 PM 59.0 °F - 54.7 °F 86% 30.22 in 7.0 mi East 9.2 mph - N/A Rain , Thunderstorm Light Thunderstorms and Rain
3:35 PM 59.0 °F - 54.7 °F 86% 30.23 in 7.0 mi ESE 5.8 mph - 0.01 in Thunderstorm Unknown
3:55 PM 59.0 °F - 54.7 °F 86% 30.21 in 7.0 mi East 8.1 mph - 0.02 in Rain Rain
4:15 PM 59.0 °F - 54.9 °F 86% 30.20 in 10.0 mi SE 12.7 mph - N/A Rain Light Rain
4:35 PM 59.0 °F - 55.6 °F 88% 30.15 in 4.0 mi ESE 17.3 mph - 0.03 in Rain Light Rain
4:55 PM 59.0 °F - 55.4 °F 88% 30.17 in 7.0 mi East 15.0 mph 19.6 mph 0.04 in   Mostly Cloudy
5:15 PM 59.0 °F - 54.9 °F 86% 30.17 in 10.0 mi East 15.0 mph 18.4 mph N/A   Scattered Clouds
5:35 PM 59.0 °F - 54.7 °F 86% 30.18 in 10.0 mi ESE 10.4 mph - N/A Thunderstorm Scattered Clouds
5:55 PM 59.0 °F - 54.7 °F 86% 30.18 in 10.0 mi East 11.5 mph - N/A   Scattered Clouds
6:15 PM 59.0 °F - 54.9 °F 86% 30.17 in 7.0 mi East 9.2 mph - N/A Rain , Thunderstorm Rain
6:35 PM 59.0 °F - 55.6 °F 88% 30.16 in 5.0 mi East 10.4 mph - 0.03 in Rain Rain
6:55 PM 59.0 °F - 55.9 °F 90% 30.16 in 7.0 mi ENE 9.2 mph - 0.05 in Rain Light Rain
7:15 PM 59.0 °F - 56.1 °F 90% 30.17 in 7.0 mi East 5.8 mph - N/A   Overcast
7:35 PM 59.0 °F - 56.1 °F 90% 30.15 in 7.0 mi East 10.4 mph - N/A   Overcast
7:55 PM 59.0 °F - 56.3 °F 91% 30.15 in 7.0 mi ENE 9.2 mph - N/A Rain Light Rain
8:15 PM 57.9 °F - 55.2 °F 91% 30.14 in 7.0 mi East 11.5 mph - N/A   Light Drizzle
8:35 PM 56.7 °F - 53.8 °F 90% 30.15 in 7.0 mi ENE 10.4 mph - N/A   Overcast
8:55 PM 56.5 °F - 53.6 °F 90% 30.15 in 7.0 mi NE 9.2 mph - N/A Rain Rain
9:15 PM 56.5 °F - 54.0 °F 91% 30.14 in 4.0 mi ENE 11.5 mph - 0.03 in Rain Light Rain
9:35 PM 56.5 °F - 54.1 °F 92% 30.15 in 5.0 mi ENE 11.5 mph - 0.05 in Rain Light Rain
9:55 PM 56.5 °F - 54.3 °F 92% 30.14 in 5.0 mi ENE 12.7 mph - 0.06 in   Drizzle
10:15 PM 56.5 °F - 54.5 °F 93% 30.13 in 4.0 mi East 15.0 mph - 0.03 in Rain Light Rain
10:35 PM 56.5 °F - 54.5 °F 93% 30.14 in 4.0 mi East 10.4 mph - 0.05 in Rain Light Rain
10:55 PM 56.3 °F - 54.3 °F 93% 30.15 in 4.0 mi ENE 9.2 mph - 0.06 in   Light Drizzle
11:15 PM 55.4 °F - 53.1 °F 92% 30.15 in 4.0 mi ENE 9.2 mph - N/A   Light Drizzle
11:35 PM 54.5 °F - 52.3 °F 92% 30.14 in 3.0 mi ENE 9.2 mph - N/A   Light Drizzle
11:55 PM 54.0 °F - 52.0 °F 93% 30.14 in 3.0 mi ENE 10.4 mph - 0.01 in   Drizzle